Location: Coed Ely
(51.5661°N, 3.4150°W)
Time: 19:56:31
(UTC+00:00)

CZ-4 R/B - Pass Details

Date: 28 January 2021
Orbit: 530 x 599 km, 97.7° (Epoch: 27 February)

Event Time Altitude Azimuth Distance (km) Brightness Sun altitude
Rises 19:30:08 0° 194° (SSW) 2,762 5.1 -23.8°
Reaches altitude 10° 19:32:33 10° 206° (SSW) 1,857 4.3 -24.2°
Maximum altitude 19:35:59 27° 265° (W) 1,096 3.5 -24.7°
Drops below altitude 10° 19:39:23 10° 324° (NW) 1,836 4.4 -25.2°
Sets 19:41:46 0° 337° (NNW) 2,724 5.2 -25.6°
